Wind_Speed
24 28 31 32 32 31 31 31 31 33 34 35 35 35 36 35 36 35 32 29 26 25 23 23 23 23 23 23 23 25 26 28 31 32 32 32 34 35 37 39 42 45 46
25 29 32 33 32 31 31 32 32 33 34 35 36 36 36 36 37 36 35 32 28 29 29 28 28 28 28 29 30 31 32 33 34 34 35 35 37 38 40 42 45 46 47
27 30 32 34 33 33 32 31 33 34 36 37 37 37 37 36 37 37 37 36 32 30 33 33 33 34 34 35 36 38 38 39 40 39 39 40 40 41 42 45 46 47 48
30 32 33 35 34 34 34 33 33 35 37 37 38 38 38 37 38 37 37 39 36 32 34 37 37 39 40 40 41 42 43 44 46 45 44 44 43 44 46 48 48 48 49
34 34 35 36 36 36 36 35 36 37 39 39 39 40 40 40 39 39 39 40 39 38 37 37 41 42 43 44 45 45 46 47 49 49 48 47 48 49 50 50 49 50 51
37 38 39 39 39 39 40 40 40 41 42 43 43 42 41 41 40 41 42 41 40 41 41 39 41 44 46 46 47 49 49 51 50 50 49 49 50 50 50 50 50 51 53
40 41 43 43 43 43 43 45 45 44 44 46 46 46 45 43 42 43 43 43 42 42 44 42 42 44 46 47 48 48 47 46 46 47 48 49 48 49 50 49 51 53 54
43 45 46 48 49 48 47 47 47 46 45 46 47 49 48 46 45 45 44 43 43 44 45 43 43 45 47 48 48 48 49 47 46 47 47 47 48 48 48 51 53 54 55
48 48 50 51 53 53 52 51 52 52 51 50 50 50 50 49 49 48 46 44 44 44 45 43 43 45 47 47 48 48 48 47 46 46 45 46 46 46 49 54 56 55 55
53 54 55 56 57 57 56 55 55 55 55 54 54 54 53 51 50 49 47 46 46 46 45 43 43 44 46 46 47 47 45 44 45 45 46 45 46 49 53 56 57 57 58
57 58 59 59 60 61 61 60 60 59 59 59 58 57 55 54 52 50 47 47 46 46 45 42 42 44 45 45 45 45 43 43 44 46 45 44 48 53 55 57 58 58 59
59 60 61 61 62 62 63 64 65 64 63 62 61 60 59 59 54 52 50 48 46 43 44 41 40 42 44 44 42 44 44 44 45 45 44 46 50 53 55 59 59 58 61
59 60 62 63 64 65 65 67 68 67 66 66 64 64 62 62 59 55 51 48 47 45 43 38 38 40 44 44 41 42 44 44 45 44 46 51 53 57 58 60 60 60 62
61 63 65 67 68 69 70 71 72 71 72 73 72 67 63 59 55 53 49 49 48 47 43 37 37 40 43 43 40 42 43 44 43 44 48 52 57 60 62 62 61 62 64
63 64 65 66 68 70 72 73 74 74 74 73 72 70 65 58 50 48 48 49 47 47 43 38 38 39 42 41 39 42 42 42 43 47 50 53 60 59 61 62 62 63 65
64 65 66 68 70 73 75 77 76 73 72 69 68 65 60 55 49 46 47 46 46 45 45 42 41 40 40 39 39 42 41 43 46 49 52 56 58 59 61 62 62 64 65
64 66 69 71 74 75 76 78 75 73 70 66 64 61 53 44 44 46 46 46 45 45 47 44 43 42 41 39 42 42 42 47 49 51 56 59 58 60 62 61 63 65 66
67 68 71 73 74 74 76 77 76 72 67 61 58 56 50 45 45 46 45 44 44 44 46 45 43 43 41 41 42 41 44 48 52 54 58 57 59 61 62 62 64 64 68
72 72 73 74 74 73 73 73 72 69 65 60 54 53 51 48 47 47 48 47 45 44 43 44 45 42 42 42 42 43 45 48 51 55 57 56 60 62 61 62 63 65 71
76 77 79 79 78 76 74 72 70 69 66 63 58 55 54 50 48 49 47 47 45 42 42 43 43 42 44 41 44 43 45 47 50 53 55 56 60 62 61 62 64 68 71
77 79 80 80 80 79 76 73 71 67 66 66 64 60 57 51 48 49 48 51 48 43 42 41 40 43 44 42 45 42 44 47 50 54 56 57 60 61 61 62 64 69 68
74 77 79 80 80 78 74 71 70 68 66 68 68 62 61 55 49 49 49 53 48 45 42 42 43 44 44 44 43 41 45 47 50 53 56 59 62 62 61 62 66 68 62
72 74 76 77 77 74 70 69 71 72 70 68 64 61 62 59 52 49 49 51 46 45 43 46 45 45 45 44 42 43 46 49 51 53 57 60 62 61 61 63 67 63 58
66 69 71 72 71 68 68 69 68 70 71 68 65 60 60 57 52 48 48 50 46 44 44 45 45 45 44 42 42 44 46 48 52 55 58 61 62 61 62 65 65 59 54
64 65 66 67 68 66 64 62 61 64 65 61 61 57 52 51 47 46 46 47 47 44 45 49 47 46 44 41 41 44 46 51 53 54 58 60 61 61 63 65 62 55 46
64 64 63 65 67 65 61 56 54 60 61 55 52 49 42 44 42 40 44 45 45 45 45 49 47 46 44 41 40 43 46 49 51 54 57 58 59 61 63 64 60 51 38
Wind_Direction
321 327 329 329 325 320 318 316 312 310 309 309 309 309 308 310 311 312 313 308 287 267 261 259 262 268 275 275 278 282 287 294 300 304 306 305 303 303 304 304 305 306 303
315 323 325 324 322 318 314 314 314 313 312 309 308 308 308 308 308 310 309 306 295 272 262 263 264 265 270 273 277 282 287 292 294 298 301 301 301 302 303 304 305 305 302
305 313 317 321 321 318 316 313 310 310 310 310 309 308 307 305 305 307 306 303 301 286 272 267 265 267 269 272 277 282 286 289 292 296 299 300 300 300 301 301 301 301 300
296 302 309 313 317 319 318 315 312 311 312 312 311 309 306 303 302 304 304 301 300 296 284 277 273 272 273 276 281 285 288 290 291 294 297 299 300 300 299 299 301 302 300
288 294 299 304 309 312 314 315 314 312 311 311 311 310 308 306 303 302 302 302 299 296 293 290 284 283 283 284 288 290 291 292 293 296 299 301 301 300 297 301 305 303 301
286 290 293 296 300 304 308 311 312 311 310 310 310 309 307 305 301 299 300 301 298 293 292 294 294 293 292 293 295 299 301 300 301 301 300 300 299 299 302 305 304 302 301
288 290 291 293 296 299 302 304 305 307 309 310 310 308 307 304 300 297 297 297 296 292 289 290 292 294 296 298 300 303 304 304 300 298 299 300 301 302 304 305 304 304 304
288 291 291 289 290 291 293 295 298 299 300 304 305 305 304 302 299 295 294 293 292 291 289 288 289 292 295 299 302 304 303 302 299 298 300 301 303 304 306 305 305 305 304
283 287 288 287 287 289 292 294 296 298 299 302 302 302 300 300 298 295 292 290 289 288 288 287 288 292 296 300 302 303 303 302 301 301 303 304 305 307 308 309 309 306 304
282 286 287 287 287 289 291 293 294 295 296 298 300 299 298 296 295 293 290 288 287 286 286 287 289 292 296 300 302 304 304 303 303 303 305 307 308 309 311 313 311 307 304
283 286 288 288 290 292 292 293 294 294 296 297 298 297 296 294 292 290 288 285 283 283 285 286 288 290 294 298 302 303 302 304 304 303 305 308 309 309 312 314 311 308 306
286 288 290 290 291 291 292 291 292 292 293 293 294 294 293 292 289 287 287 283 280 279 280 283 285 287 292 297 301 302 303 302 302 302 305 307 309 310 310 312 311 309 309
286 286 286 287 288 288 288 288 289 289 290 291 292 292 292 290 288 286 286 284 281 279 278 280 281 284 289 293 297 299 299 300 300 302 307 307 310 311 311 311 311 310 310
284 285 286 288 288 288 288 288 288 289 290 291 291 290 288 288 286 285 284 283 283 280 277 278 278 280 283 290 295 297 297 298 300 302 305 309 309 311 312 313 312 311 311
281 282 283 283 284 284 285 286 289 291 292 293 293 292 291 289 285 283 282 283 283 283 279 277 278 279 284 291 297 298 296 298 301 302 305 308 311 313 314 314 312 312 312
281 281 280 281 281 282 283 285 287 289 291 294 295 293 290 287 280 279 281 283 283 281 279 278 278 281 285 293 298 298 298 299 301 304 307 308 310 313 314 314 313 313 315
280 279 279 280 282 284 285 286 288 289 290 292 293 291 286 284 285 286 284 282 280 280 279 280 281 284 286 292 298 300 301 303 303 305 307 308 311 313 314 314 314 316 318
279 279 280 281 282 284 285 287 288 288 288 288 290 289 286 281 281 283 283 282 280 278 278 278 280 283 286 291 298 299 299 301 302 304 307 309 313 313 315 315 315 318 321
280 280 279 279 280 281 282 284 285 286 286 284 283 284 280 277 277 278 280 279 277 275 275 276 280 282 285 292 295 294 297 298 299 305 308 309 312 314 316 315 317 321 324
278 279 280 280 281 281 282 282 282 283 284 284 281 277 277 275 277 277 278 277 277 273 271 273 279 281 286 292 292 294 297 300 303 309 307 308 311 314 315 317 320 324 325
274 275 276 276 277 277 277 279 279 278 279 281 282 277 274 271 272 274 275 279 280 277 275 273 277 280 285 290 292 298 301 304 308 312 310 309 313 314 316 320 323 325 324
272 273 273 273 274 275 275 274 275 276 276 279 280 277 273 269 267 268 271 275 277 276 275 272 275 278 285 291 294 300 303 306 312 313 312 312 315 316 318 322 325 326 322
274 273 273 273 274 274 274 272 270 273 274 276 277 274 272 267 262 262 266 270 272 275 273 272 277 283 288 292 296 301 306 311 315 314 313 314 316 317 319 323 326 325 322
277 275 274 272 273 274 274 272 269 270 273 273 276 274 272 264 258 260 265 269 271 273 275 271 279 284 287 292 298 302 307 313 315 313 313 315 316 318 321 325 328 325 323
280 277 275 273 272 274 274 273 271 269 271 271 274 272 271 264 257 257 261 267 273 272 277 281 283 282 285 291 299 302 308 315 314 312 313 315 317 319 323 327 328 325 323
283 281 278 277 275 275 272 273 274 269 268 268 273 272 268 262 258 255 258 262 269 274 279 284 283 282 284 292 300 304 310 314 314 313 314 316 318 322 326 328 328 325 323
Height
5851 5848 5844 5840 5836 5832 5828 5824 5820 5816 5812 5808 5804 5800 5795 5790 5785 5779 5775 5771 5768 5765 5763 5759 5757 5755 5753 5750 5747 5743 5740 5737 5735 5732 5729 5725 5720 5716 5712 5708 5704 5701 5697
5847 5844 5840 5835 5831 5827 5823 5819 5815 5811 5807 5803 5799 5795 5790 5785 5779 5774 5769 5765 5763 5761 5758 5755 5752 5749 5746 5745 5742 5738 5734 5730 5727 5724 5721 5717 5712 5709 5704 5700 5695 5691 5687
5841 5838 5834 5831 5827 5822 5818 5814 5810 5806 5802 5797 5793 5789 5784 5779 5773 5768 5763 5759 5758 5755 5752 5749 5746 5743 5740 5738 5735 5731 5727 5724 5720 5716 5713 5708 5704 5700 5695 5690 5685 5680 5675
5835 5832 5829 5826 5823 5817 5813 5809 5804 5800 5795 5791 5786 5782 5777 5772 5766 5762 5757 5753 5751 5749 5745 5742 5739 5735 5732 5730 5726 5722 5718 5715 5710 5707 5703 5698 5694 5689 5684 5678 5673 5668 5663
5829 5827 5823 5819 5816 5812 5807 5803 5799 5794 5789 5784 5780 5775 5771 5766 5761 5756 5751 5747 5744 5740 5738 5735 5731 5728 5725 5721 5717 5713 5709 5705 5701 5698 5693 5688 5682 5677 5672 5666 5661 5656 5650
5822 5819 5816 5811 5808 5806 5801 5797 5793 5789 5784 5778 5773 5768 5763 5758 5753 5748 5744 5740 5735 5731 5729 5727 5723 5719 5715 5711 5707 5704 5700 5697 5691 5686 5682 5677 5672 5666 5660 5655 5649 5644 5638
5814 5812 5809 5805 5801 5798 5794 5790 5785 5781 5777 5771 5766 5761 5756 5751 5745 5740 5736 5732 5727 5722 5719 5717 5714 5710 5705 5701 5697 5692 5688 5684 5679 5674 5670 5665 5659 5654 5649 5644 5637 5630 5623
5808 5805 5801 5797 5792 5788 5784 5779 5774 5769 5766 5761 5757 5753 5749 5745 5738 5732 5727 5723 5718 5713 5709 5707 5704 5700 5696 5692 5687 5683 5677 5672 5668 5663 5658 5653 5647 5642 5637 5631 5624 5616 5609
5798 5795 5791 5787 5783 5779 5776 5772 5767 5764 5759 5754 5748 5743 5739 5735 5730 5723 5717 5712 5707 5703 5699 5697 5694 5690 5686 5682 5677 5671 5666 5661 5657 5653 5648 5643 5638 5632 5625 5619 5612 5604 5596
5787 5784 5781 5777 5773 5770 5766 5763 5758 5754 5749 5744 5739 5734 5729 5724 5719 5714 5708 5702 5697 5692 5688 5687 5685 5680 5676 5671 5668 5662 5657 5652 5648 5644 5638 5633 5628 5621 5614 5606 5598 5591 5584
5778 5775 5772 5768 5765 5761 5757 5753 5749 5744 5740 5735 5729 5724 5719 5713 5707 5703 5698 5693 5687 5682 5678 5676 5674 5670 5666 5662 5658 5653 5647 5642 5638 5634 5627 5621 5615 5609 5602 5593 5586 5578 5569
5770 5767 5763 5758 5754 5750 5746 5741 5737 5732 5728 5723 5717 5711 5706 5700 5694 5688 5685 5681 5677 5675 5670 5667 5664 5660 5656 5652 5648 5643 5637 5632 5628 5624 5617 5611 5603 5596 5590 5581 5572 5563 5554
5759 5754 5749 5745 5741 5736 5732 5727 5722 5719 5714 5709 5704 5698 5692 5686 5680 5676 5672 5669 5666 5664 5660 5658 5654 5649 5646 5642 5638 5634 5628 5623 5618 5613 5608 5601 5593 5586 5576 5566 5556 5547 5538
5744 5739 5735 5730 5725 5720 5716 5711 5707 5704 5700 5695 5689 5683 5677 5672 5666 5662 5659 5656 5655 5654 5651 5649 5645 5640 5635 5632 5628 5624 5619 5613 5607 5603 5598 5591 5583 5573 5563 5551 5541 5532 5523
5729 5725 5720 5715 5710 5705 5700 5695 5692 5689 5684 5679 5673 5667 5662 5658 5654 5649 5645 5644 5643 5642 5641 5639 5633 5629 5625 5622 5618 5614 5608 5602 5596 5592 5586 5578 5569 5559 5548 5537 5527 5518 5508
5714 5709 5705 5699 5695 5690 5684 5679 5676 5673 5667 5663 5658 5653 5647 5643 5640 5637 5634 5631 5629 5628 5627 5627 5622 5619 5615 5612 5606 5601 5596 5590 5586 5579 5572 5564 5554 5544 5533 5523 5513 5503 5492
5699 5695 5689 5685 5680 5675 5669 5663 5660 5657 5652 5648 5643 5637 5633 5630 5629 5627 5623 5619 5617 5615 5614 5614 5609 5606 5603 5599 5595 5591 5586 5581 5575 5568 5561 5552 5540 5531 5520 5509 5499 5488 5477
5684 5679 5674 5669 5666 5660 5654 5648 5644 5641 5638 5635 5629 5624 5621 5617 5616 5615 5612 5609 5606 5604 5602 5601 5597 5595 5591 5588 5584 5581 5576 5570 5563 5556 5549 5539 5528 5517 5506 5496 5486 5475 5463
5665 5661 5657 5653 5649 5644 5639 5633 5629 5626 5623 5621 5616 5612 5609 5604 5602 5601 5598 5597 5594 5592 5590 5588 5586 5584 5581 5577 5573 5569 5563 5557 5550 5544 5536 5526 5516 5504 5494 5484 5472 5460 5448
5646 5641 5636 5632 5627 5624 5620 5617 5613 5610 5607 5605 5602 5598 5595 5591 5590 5588 5585 5582 5580 5577 5575 5574 5573 5572 5569 5566 5562 5556 5552 5545 5538 5530 5522 5513 5503 5492 5482 5471 5459 5447 5433
5626 5621 5616 5612 5608 5604 5602 5598 5594 5591 5589 5587 5587 5585 5581 5579 5575 5573 5572 5569 5567 5564 5563 5561 5560 5558 5557 5554 5552 5545 5540 5533 5526 5517 5509 5500 5492 5481 5470 5458 5446 5433 5418
5606 5600 5596 5591 5587 5584 5583 5580 5576 5571 5570 5569 5570 5571 5569 5565 5562 5560 5558 5556 5557 5556 5554 5552 5548 5545 5544 5543 5540 5535 5528 5521 5514 5507 5497 5488 5479 5469 5459 5447 5434 5419 5404
5586 5581 5575 5570 5565 5562 5561 5559 5557 5552 5551 5554 5555 5556 5554 5550 5548 5547 5546 5544 5544 5546 5544 5541 5536 5534 5533 5532 5529 5524 5517 5509 5501 5493 5485 5476 5467 5457 5448 5437 5424 5407 5392
5564 5559 5555 5548 5544 5542 5539 5536 5534 5532 5531 5536 5539 5539 5536 5534 5533 5534 5535 5532 5531 5533 5532 5530 5525 5523 5523 5521 5518 5514 5506 5497 5490 5481 5473 5465 5455 5445 5436 5426 5412 5396 5382
5541 5536 5532 5527 5523 5523 5520 5516 5513 5512 5514 5519 5521 5522 5520 5519 5520 5521 5521 5521 5520 5520 5520 5520 5516 5514 5512 5510 5508 5503 5495 5487 5479 5472 5462 5453 5444 5433 5424 5413 5399 5385 5372
5518 5514 5510 5505 5503 5502 5501 5498 5496 5495 5497 5502 5506 5507 5506 5506 5507 5507 5508 5509 5510 5510 5510 5509 5506 5505 5504 5501 5497 5492 5485 5477 5469 5462 5452 5443 5433 5422 5411 5399 5386 5374 5363